Location: *
(50.7333°N, 7.8667°E)
Time: 14:21:18
(UTC+00:00)

Daily predictions for brighter satellites

Satellite Brightness Start Highest point End
(mag) Time Altitude Azimuth Time Altitude Azimuth Time Altitude Azimuth
STARLINK-1097 3.7 18:24:54 10° WNW 18:29:03 74° NNE 18:33:12 10° E
Cosmos 1766 3.3 18:25:35 10° S 18:29:34 68° E 18:33:32 10° NNE
ADEOS Rocket 3.3 18:23:38 10° NNE 18:30:36 86° WNW 18:36:48 10° SSW
STARLINK-1066 4.4 18:27:49 10° W 18:30:40 31° SW 18:33:31 10° SSE
STARLINK-1081 4.4 18:28:19 10° W 18:31:07 30° SW 18:33:54 10° SSE
USA 234 4.1 18:25:44 10° ENE 18:31:14 28° SE 18:36:42 10° S
STARLINK-1070 4.4 18:28:46 10° W 18:31:34 30° SW 18:34:20 10° SSE
STARLINK-67 2.3 18:29:00 10° WSW 18:31:34 73° SSE 18:34:09 10° ENE
STARLINK-1069 4.5 18:29:11 10° W 18:32:00 30° SW 18:34:49 10° SSE
STARLINK-1201 3.3 18:28:56 10° SW 18:32:05 47° SSE 18:35:16 10° ENE
STARLINK-1085 4.5 18:29:38 10° W 18:32:27 30° SW 18:35:16 10° SSE
STARLINK-1086 4.5 18:30:08 10° W 18:32:55 29° SW 18:35:41 10° SSE
Cosmos 1626 2.4 18:29:19 10° N 18:32:55 46° ENE 18:36:30 10° SSE
STARLINK-1095 4.5 18:30:35 10° W 18:33:21 29° SW 18:36:07 10° SSE
STARLINK-1224 4.2 18:29:48 10° SW 18:33:35 38° SE 18:37:23 10° ENE
STARLINK-1099 3.7 18:29:53 10° WNW 18:34:03 76° NNE 18:38:11 10° E
STARLINK-1203 4.0 18:31:26 10° SW 18:35:11 41° SSE 18:38:57 10° ENE
H-2A R/B 2.1 18:30:58 10° SSE 18:36:12 65° ENE 18:41:19 10° N
HJ-1C 3.7 18:33:54 10° S 18:37:14 70° WSW 18:40:37 10° NNW
STARLINK-1225 4.1 18:34:23 10° SW 18:38:12 41° SSE 18:42:03 10° ENE
SL-16 R/B 2.6 18:33:01 10° S 18:38:15 40° ESE 18:43:30 10° NE
STARLINK-1072 4.3 18:34:43 10° WNW 18:38:38 48° SSW 18:42:31 10° SE
STARLINK-1104 3.7 18:34:52 10° WNW 18:39:02 79° NNE 18:43:11 10° ESE
TSX-5 4.5 18:34:02 10° NNW 18:39:45 63° NE 18:44:06 10° SE
Cosmos 2333 Rocket 3.8 18:35:13 10° WSW 18:40:32 39° NW 18:45:51 10° NNE
SL-08 RB Rocket 4.2 18:36:34 10° SE 18:40:49 42° ENE 18:45:10 10° N
Resurs 01 Rocket 3.0 18:39:17 10° ESE 18:42:42 23° ENE 18:46:09 10° N
STARLINK-1230 4.0 18:39:04 10° SW 18:42:56 43° SSE 18:46:49 10° ENE
STARLINK-1096 4.4 18:39:06 10° WNW 18:42:58 45° SSW 18:46:49 10° SE
STARLINK-1144 3.7 18:39:52 10° WNW 18:44:01 81° NNE 18:47:59 11° ESE
STARLINK-1233 3.0 18:42:23 10° SW 18:45:29 59° SSE 18:48:36 10° ENE
STARLINK-1212 3.0 18:42:52 10° SW 18:45:56 59° SSE 18:49:02 10° ENE
STARLINK-1105 3.0 18:43:17 10° SW 18:46:23 60° SSE 18:49:29 10° ENE
Cosmos 1302 Rocket 4.0 18:41:22 10° NNW 18:46:40 73° ENE 18:51:56 10° SSE
FREGAT/IRIS 2.3 18:44:05 10° SSE 18:46:46 66° ENE 18:49:30 10° N
STARLINK-1206 2.9 18:43:47 10° SW 18:46:51 60° SSE 18:49:57 10° ENE
STARLINK-1247 2.9 18:44:13 10° SW 18:47:18 60° SSE 18:50:23 10° ENE
STARLINK-1243 3.9 18:43:50 10° SW 18:47:44 46° SSE 18:51:39 10° ENE
STARLINK-1227 2.9 18:44:39 10° SW 18:47:44 61° SSE 18:50:50 10° ENE
STARLINK-1079 4.5 18:44:09 10° WNW 18:48:00 43° SSW 18:51:49 10° SE
STARLINK-1218 2.9 18:45:07 10° SW 18:48:12 61° SSE 18:51:17 10° ENE
Abrixas rocket 4.2 18:48:02 10° SSE 18:48:37 10° SE 18:49:06 10° SE
STARLINK-1226 2.9 18:45:34 10° SW 18:48:39 61° SSE 18:51:45 10° ENE
STARLINK-1103 3.6 18:44:50 10° WNW 18:49:00 84° NNE 18:52:45 12° ESE
STARLINK-1254 2.9 18:45:59 10° SW 18:49:04 62° SSE 18:52:12 10° ENE
Cosmos 304 Rocket 4.4 18:44:36 10° NNW 18:49:20 60° WSW 18:54:02 10° S
STARLINK-1215 2.9 18:46:28 10° SW 18:49:33 62° SSE 18:52:38 10° ENE
Cosmos 1709 Rocket 4.0 18:43:29 10° N 18:49:44 73° ENE 18:55:52 10° SSE
STARLINK-1231 2.9 18:46:54 10° SW 18:49:59 63° SSE 18:53:05 10° ENE
SeaSat 1 3.5 18:45:24 10° NNE 18:50:10 50° NW 18:54:56 10° SW
STARLINK-1232 2.9 18:47:48 10° WSW 18:50:53 63° SSE 18:53:59 10° ENE
STARLINK-1217 2.9 18:48:15 10° WSW 18:51:20 64° SSE 18:54:27 10° ENE
Cosmos 2084 4.5 18:47:02 10° WSW 18:51:26 51° NW 18:55:49 10° NE
Cosmos 1953 3.7 18:48:31 10° SE 18:51:26 20° E 18:54:21 10° NE
STARLINK-1208 2.9 18:48:40 10° WSW 18:51:46 64° SSE 18:54:54 10° ENE
STARLINK-1229 2.9 18:49:09 10° WSW 18:52:14 65° SSE 18:55:20 10° ENE
STARLINK-1236 3.8 18:48:33 10° SW 18:52:30 49° SSE 18:56:27 10° ENE
STARLINK-1271 2.9 18:49:36 10° WSW 18:52:41 65° SSE 18:55:46 10° ENE
STARLINK-1270 2.8 18:50:04 10° WSW 18:53:09 65° SSE 18:56:13 10° ENE
STARLINK-1154 2.8 18:50:30 10° WSW 18:53:36 66° SSE 18:56:38 10° ENE
STARLINK-1101 3.6 18:49:49 10° WNW 18:53:59 87° NNE 18:57:32 14° ESE
STARLINK-1197 2.8 18:51:24 10° WSW 18:54:30 67° SSE 18:57:31 11° ENE
STARLINK-1189 2.8 18:51:52 10° WSW 18:54:57 67° SSE 18:57:57 11° ENE
Cosmos 1269 Rocket 4.0 18:49:52 10° S 18:55:06 65° ESE 19:00:22 10° NNE
MONITOR-E 3.6 18:52:39 10° SSE 18:55:18 81° ENE 18:57:58 10° N
STARLINK-1187 2.8 18:52:40 10° WSW 18:55:48 74° SSE 18:58:50 11° ENE
STARLINK-1188 2.8 18:52:45 10° WSW 18:55:51 68° SSE 18:58:49 11° ENE
STARLINK-1198 2.8 18:52:46 10° WSW 18:55:52 68° SSE 18:58:49 11° ENE
STARLINK-1235 2.8 18:53:21 10° WSW 18:56:30 80° SSE 18:59:33 11° ENE
CZ-4C R/B 4.0 18:51:45 10° W 18:56:47 32° NNW 19:02:43 10° NE
STARLINK-1199 2.8 18:54:40 10° WSW 18:57:48 70° SSE 19:00:44 11° ENE
STARLINK-1191 2.8 18:55:08 10° WSW 18:58:15 70° SSE 19:01:10 12° ENE
STARLINK-1210 2.8 18:55:35 10° WSW 18:58:43 71° SSE 19:01:36 12° ENE
STARLINK-1102 3.6 18:54:47 10° WNW 18:58:56 90° WNW 19:02:19 15° ESE
STARLINK-1221 2.8 18:56:01 10° WSW 18:59:10 71° SSE 19:02:02 12° ENE
STARLINK-1219 2.8 18:56:29 10° WSW 18:59:37 72° SSE 19:02:29 12° ENE
STARLINK-1222 2.8 18:56:56 10° WSW 19:00:04 72° SSE 19:02:54 12° ENE
ISS -3.8 18:56:48 10° WNW 19:00:10 89° NNE 19:02:41 17° ESE
STARLINK-1211 2.8 18:57:23 10° WSW 19:00:30 72° SSE 19:03:20 12° ENE
STARLINK-1214 2.8 18:57:50 10° WSW 19:00:57 73° SSE 19:03:46 12° ENE
Cosmos 2297 4.0 18:55:26 10° NNW 19:01:05 73° WSW 19:06:46 10° SSE
STARLINK-1245 2.8 18:58:18 10° WSW 19:01:25 73° SSE 19:04:10 13° ENE
STARLINK-1238 2.8 18:58:41 10° WSW 19:01:49 74° SSE 19:04:37 13° ENE
STARLINK-1269 3.7 18:58:18 10° SW 19:02:17 56° SSE 19:06:12 11° ENE
STARLINK-1205 2.8 18:59:37 10° WSW 19:02:44 75° SSE 19:05:27 13° ENE
BREEZE-M DEB (TANK) 4.0 18:54:07 10° W 19:02:47 80° S 19:05:20 16° E
Cosmos 1455 Rocket 3.2 18:58:31 10° SSW 19:02:52 81° W 19:07:16 10° N
STARLINK-1204 2.8 19:00:06 10° WSW 19:03:13 75° SSE 19:05:54 13° ENE
Cosmos 2084 Rocket 3.7 18:59:00 10° NW 19:03:27 62° NE 19:06:58 16° ESE
STARLINK-1111 3.6 18:59:46 10° WNW 19:03:56 87° SSW 19:07:06 17° ESE
STARLINK-1200 3.6 19:03:05 10° SW 19:07:06 59° SSE 19:10:50 12° ENE
Cosmos 2237 Rocket 2.9 19:02:10 10° SW 19:07:42 58° NW 19:13:18 10° NNE
CZ-2C R/B 3.3 19:03:33 10° NNE 19:08:05 29° E 19:12:34 10° SSE
Cosmos 1626 Rocket 3.5 19:04:14 10° N 19:08:41 81° ENE 19:13:03 10° SSE
STARLINK-1073 3.6 19:04:46 10° WNW 19:08:55 83° SSW 19:11:53 18° ESE
STARLINK-1192 3.6 19:07:48 10° SW 19:11:51 62° SSE 19:15:24 13° ENE
STARLINK-1121 3.6 19:09:43 10° WNW 19:13:53 80° SSW 19:16:39 20° ESE
Cosmos 292 Rocket 3.9 19:10:14 10° NNW 19:14:57 55° ENE 19:18:32 17° SE
ARGOS 3.4 19:11:14 10° S 19:16:38 74° WSW 19:22:03 10° NNW
Cosmos 1602 Rocket 3.5 19:12:12 10° N 19:16:42 77° E 19:21:07 10° SSE
STARLINK-1244 3.5 19:12:42 10° SW 19:16:45 66° SSE 19:20:08 14° ENE
IRIDIUM 104 4.4 19:12:53 10° N 19:18:04 57° E 19:23:11 10° SSE
STARLINK-1106 3.6 19:14:41 10° WNW 19:18:50 76° SSW 19:21:25 22° ESE
STARLINK-1138 3.5 19:17:16 10° WSW 19:21:20 69° SSE 19:24:34 16° ENE
STARLINK-1234 2.8 19:19:17 10° WSW 19:22:15 75° NNW 19:24:04 21° ENE
MOS 1 Rocket 4.0 19:17:36 10° NNE 19:22:31 41° E 19:27:35 10° SSE
STARLINK-1112 3.7 19:19:42 10° WNW 19:23:51 72° SSW 19:26:14 24° SE
USA 186 3.2 19:20:38 10° S 19:23:56 42° W 19:27:09 10° NNW
STARLINK-1143 3.5 19:22:09 10° WSW 19:26:14 73° SSE 19:29:16 17° ENE
IRIDIUM 114 4.3 19:22:01 10° N 19:27:15 68° E 19:32:27 10° SSE
MetOp-A 4.1 19:21:56 10° SSE 19:27:17 83° ENE 19:32:41 10° NNW
COSMOS 2455 4.3 19:22:57 10° NNW 19:27:55 25° NNE 19:32:01 13° ENE
STARLINK-1128 3.7 19:24:41 10° WNW 19:28:49 69° SSW 19:31:01 26° SE
CZ-2C R/B 3.7 19:24:12 10° S 19:29:06 53° W 19:33:51 10° NNW
Cosmos 1544 Rocket 4.3 19:26:10 10° SSW 19:30:30 57° WNW 19:34:54 10° N
Cosmos 1437 3.2 19:28:11 10° N 19:31:02 35° ENE 19:31:25 33° E
Cosmos 1470 2.8 19:28:34 10° SSW 19:32:26 80° W 19:36:23 10° N
STARLINK-1113 3.8 19:29:39 10° WNW 19:33:47 65° SSW 19:35:47 28° SE
STARLINK-1241 3.4 19:30:30 10° WSW 19:34:33 79° SSE 19:37:13 21° ENE
Cosmos 1825 Rocket 3.8 19:31:24 10° N 19:35:44 50° ENE 19:37:53 26° SE
SPOT 3 Rocket 3.7 19:30:32 10° SSE 19:35:46 79° WSW 19:41:02 10° NNW
IRIDIUM 103 4.2 19:31:11 10° N 19:36:27 80° E 19:41:40 10° S
NOSS 3-4 (A) 4.3 19:31:27 10° NW 19:37:56 47° NNE 19:42:42 21° E
NOSS 3-4 (C) 4.3 19:31:33 10° NW 19:38:02 47° NNE 19:42:48 21° E
STARLINK-1119 3.8 19:34:38 10° WNW 19:38:44 62° SSW 19:40:34 30° SE
STARLINK-1239 3.4 19:35:25 10° WSW 19:39:28 83° SSE 19:41:56 23° ENE
Cosmos 2369 Rocket 2.2 19:33:48 10° NNW 19:39:33 79° ENE 19:43:14 23° SE
SJ-6B 4.1 19:38:10 10° S 19:42:02 42° W 19:45:59 10° NNW
STARLINK-1114 3.9 19:39:40 10° WNW 19:43:45 58° SSW 19:45:24 33° SE
Cosmos 1726 2.3 19:42:56 33° SE 19:44:10 47° E 19:47:48 10° NNE
STARLINK-1240 3.5 19:40:08 10° WSW 19:44:11 86° SSE 19:46:29 25° ENE
Aureole 2 Rocket 2.3 19:41:08 10° NNW 19:44:40 89° ENE 19:45:56 37° SSE
Cosmos 1758 Rocket 3.4 19:41:10 10° N 19:45:33 72° ENE 19:47:54 26° SSE
Cosmos 2263 4.2 19:39:57 10° NNW 19:45:35 68° ENE 19:48:35 28° SE
Cosmos 1758 3.8 19:42:24 10° SSW 19:46:27 63° WNW 19:50:33 10° N
SAR-Lupe-2 4.4 19:44:42 10° NNE 19:47:28 32° ENE 19:47:28 32° ENE
Cosmos 1908 4.4 19:48:58 27° ENE 19:48:58 27° ENE 19:51:37 10° NNE
CZ-2C R/B 3.8 19:43:30 10° NNE 19:48:18 84° WNW 19:53:01 10° SSW
STARLINK-1130 (DARKSAT) 4.0 19:44:38 10° WNW 19:48:42 55° SSW 19:50:10 34° SSE
STARLINK-1216 3.5 19:44:52 10° WSW 19:48:56 89° SSW 19:51:02 28° ENE
NOSS 3-3 (A) 4.3 19:44:02 10° S 19:49:27 40° ESE 19:55:32 10° NE
NOSS 3-3 (C) 4.3 19:44:08 10° S 19:49:34 40° ESE 19:55:37 10° NE
ATLAS CENTAUR R/B 4.1 19:49:19 10° NNW 19:51:05 12° N 19:52:49 10° NNE
Cosmos 1953 Rocket 3.8 19:47:41 10° N 19:52:02 50° ENE 19:53:21 37° SE
STARLINK-1209 3.1 19:49:20 10° W 19:52:15 58° N 19:52:50 46° NE
STARLINK-1084 4.0 19:49:36 10° WNW 19:53:39 51° SSW 19:54:56 36° SSE
STARLINK-1237 3.5 19:49:38 10° WSW 19:53:43 87° N 19:55:38 30° ENE
STARLINK-1228 3.1 19:51:33 10° W 19:54:24 57° N 19:54:50 49° NNE
Terra 3.4 19:53:53 19° ENE 19:54:36 20° ENE 19:58:01 10° NNE
Cosmos 2184 Rocket 4.0 19:48:14 10° N 19:54:37 85° E 19:59:37 17° S
IRIDIUM 106 4.5 19:49:29 10° N 19:54:44 74° W 19:59:55 10° S
Spot 2 Rocket 3.6 19:55:41 33° SE 19:57:51 58° ENE 20:02:53 10° N
STARLINK-1202 3.5 19:54:23 10° WSW 19:58:27 85° NNW 20:00:11 33° ENE
STARLINK-1098 4.1 19:54:36 10° WNW 19:58:37 48° SSW 19:59:43 37° SSE
Cosmos 1606 Rocket 3.7 19:59:07 39° SE 20:00:24 53° E 20:04:45 10° NNE
Cosmos 1943 Rocket 2.6 19:55:27 10° NW 20:00:54 59° WSW 20:04:35 21° S
SPOT 1/Viking Rocket 4.0 20:00:50 34° ESE 20:02:23 44° ENE 20:07:20 10° N
ERBS 4.1 19:59:50 10° WNW 20:02:51 29° N 20:04:36 19° NE
STARLINK-1123 4.2 19:59:36 10° WNW 20:03:34 45° SSW 20:04:30 38° S
Cosmos 1943 3.4 20:01:04 19° S 20:04:44 44° ESE 20:10:06 10° NE
STARLINK-67 3.6 20:03:07 10° W 20:05:15 42° NW 20:05:15 42° NW
STARLINK-1246 3.6 20:01:35 10° WSW 20:05:41 81° NNW 20:07:11 38° ENE
SL-8 R/B 3.9 20:01:44 10° W 20:06:25 56° SSW 20:07:34 44° SE
Meteor 2-10 4.0 20:01:31 10° S 20:06:52 81° E 20:12:28 10° NNE
STARLINK-1201 3.3 20:05:05 10° W 20:08:20 62° N 20:08:41 56° NNE
STARLINK-1097 4.3 20:04:35 10° WNW 20:08:31 43° SSW 20:09:16 38° S
ATLAS 2AS CENTAUR R/B 3.0 20:03:10 10° NW 20:10:55 66° NE 20:14:22 33° ESE
STARLINK-1224 3.6 20:08:43 10° WSW 20:12:47 77° NNW 20:13:58 45° ENE
STARLINK-1099 4.3 20:09:35 10° WNW 20:13:29 40° SW 20:14:04 37° SSW
Cosmos 1340 Rocket 4.4 20:15:29 23° NE 20:15:29 23° NE 20:17:25 10° NNE
STARLINK-1203 3.6 20:10:06 10° W 20:14:05 74° NNW 20:15:06 47° ENE
USA 234 3.1 20:08:21 10° ENE 20:14:55 78° SSE 20:21:28 10° SW
Cosmos 2154 Rocket 3.9 20:09:18 10° N 20:15:43 80° E 20:18:59 31° SSE
H-2A R/B 4.4 20:12:01 10° SW 20:16:03 22° W 20:20:02 10° NW
USA 245 4.0 20:15:17 42° SSE 20:17:05 76° ENE 20:23:02 10° NNW
STARLINK-1225 3.6 20:13:19 10° W 20:17:24 75° NNW 20:18:23 49° ENE
DMSP B5D2-2 4.3 20:12:36 10° N 20:17:47 69° WNW 20:22:58 10° SSW
STARLINK-1104 4.4 20:14:35 10° WNW 20:18:26 37° SW 20:18:51 36° SSW
Resurs 01 Rocket 2.3 20:16:28 24° SSW 20:18:54 51° W 20:23:14 10° NNW
Cosmos 1328 3.7 20:15:47 10° NNW 20:19:49 85° W 20:20:25 63° S
STARLINK-1233 3.6 20:18:14 10° W 20:21:02 53° NW 20:21:02 53° NW
Cosmos 921 Rocket 3.9 20:17:43 10° N 20:21:21 33° NE 20:21:21 33° NE
STARLINK-1212 3.6 20:18:43 10° W 20:21:27 52° NW 20:21:27 52° NW
STARLINK-1230 3.7 20:18:04 10° W 20:22:09 73° NNW 20:22:57 54° NE
STARLINK-1105 3.6 20:19:09 10° W 20:21:53 52° NW 20:21:53 52° NW
SL-16 R/B 3.4 20:16:58 10° WSW 20:22:21 43° NW 20:27:46 10° NNE
STARLINK-1206 3.7 20:19:38 10° W 20:22:19 50° NW 20:22:19 50° NW
STARLINK-1247 3.7 20:20:05 10° W 20:22:44 49° NW 20:22:44 49° NW
Cosmos 2228 2.8 20:22:39 56° S 20:23:32 84° E 20:27:53 10° NNE
STARLINK-1227 3.7 20:20:30 10° W 20:23:11 50° NW 20:23:11 50° NW
STARLINK-1218 3.8 20:20:59 10° W 20:23:36 48° NW 20:23:36 48° NW
STARLINK-1226 3.8 20:21:26 10° W 20:24:03 48° NW 20:24:03 48° NW
Cosmos 967 Rocket 4.4 20:18:20 10° SSW 20:24:41 62° ESE 20:31:05 10° NE
STARLINK-1254 3.8 20:21:52 10° W 20:24:30 49° NW 20:24:30 49° NW
STARLINK-1215 3.8 20:22:21 10° W 20:24:54 47° NW 20:24:54 47° NW
STARLINK-1231 3.9 20:22:47 10° W 20:25:19 46° NW 20:25:19 46° NW
STARLINK-1232 3.9 20:23:42 10° W 20:26:12 45° NW 20:26:12 45° NW
STARLINK-1243 3.7 20:22:55 10° W 20:27:00 71° NNW 20:27:35 59° NE
STARLINK-1217 3.9 20:24:09 10° W 20:26:38 45° NW 20:26:38 45° NW
Cosmos 1953 3.5 20:23:48 10° SW 20:27:33 41° WNW 20:31:21 10° N
STARLINK-1208 3.9 20:24:34 10° W 20:27:05 46° NW 20:27:05 46° NW
STARLINK-1229 4.0 20:25:03 10° W 20:27:29 44° NW 20:27:29 44° NW
STARLINK-1271 4.0 20:25:30 10° W 20:27:56 44° NW 20:27:56 44° NW
STARLINK-1270 4.0 20:25:58 10° W 20:28:22 43° NW 20:28:22 43° NW
STARLINK-1154 4.1 20:26:25 10° W 20:28:48 42° NW 20:28:48 42° NW
Iridium 4 Rocket 4.4 20:25:59 10° NNE 20:28:55 27° NE 20:28:55 27° NE
Cosmos 962 Rocket 4.4 20:23:47 10° N 20:29:59 67° ENE 20:31:44 47° SE
STARLINK-1197 4.1 20:27:19 10° W 20:29:41 42° NW 20:29:41 42° NW
STARLINK-1189 4.1 20:27:47 10° W 20:30:07 41° NW 20:30:07 41° NW
STARLINK-1187 4.1 20:28:38 10° W 20:31:00 41° NW 20:31:00 41° NW
STARLINK-1198 4.2 20:28:40 10° W 20:30:58 40° WNW 20:30:58 40° WNW
STARLINK-1188 4.2 20:28:41 10° W 20:30:59 40° NW 20:30:59 40° NW
STARLINK-1236 3.7 20:27:43 10° W 20:31:48 69° N 20:32:12 63° NNE
STARLINK-1235 4.2 20:29:21 10° W 20:31:42 41° NW 20:31:42 41° NW
STARLINK-1199 4.3 20:30:37 10° W 20:32:54 39° WNW 20:32:54 39° WNW
STARLINK-1191 4.3 20:31:04 10° W 20:33:19 39° WNW 20:33:19 39° WNW
Nadezhda 1 Rocket 4.0 20:29:47 20° S 20:34:28 90° ESE 20:40:54 10° N
STARLINK-1210 4.3 20:31:32 10° W 20:33:45 38° WNW 20:33:45 38° WNW
STARLINK-1221 4.3 20:31:59 10° W 20:34:12 38° WNW 20:34:12 38° WNW
STARLINK-1219 4.3 20:32:26 10° W 20:34:39 38° WNW 20:34:39 38° WNW
SL-8 Rocket 4.2 20:29:44 10° N 20:35:53 52° ENE 20:37:01 46° ESE
STARLINK-1222 4.4 20:32:54 10° W 20:35:04 37° WNW 20:35:04 37° WNW
STARLINK-1211 4.4 20:33:20 10° W 20:35:30 37° WNW 20:35:30 37° WNW
ISS -1.9 20:33:45 10° W 20:35:39 25° WSW 20:35:39 25° WSW
STARLINK-1214 4.4 20:33:47 10° W 20:35:56 36° WNW 20:35:56 36° WNW
STARLINK-1245 4.5 20:34:16 10° W 20:36:20 35° WNW 20:36:20 35° WNW
STARLINK-1238 4.5 20:34:39 10° W 20:36:47 36° WNW 20:36:47 36° WNW
STARLINK-1269 3.8 20:37:38 10° W 20:41:43 66° N 20:41:43 66° N
Cosmos 2058 Rocket 3.1 20:42:37 67° NE 20:42:37 67° NE 20:46:43 10° NNE
Cosmos 1703 4.1 20:39:33 10° NNW 20:43:20 45° W 20:43:49 42° WSW
Cosmos 2366 rocket 4.2 20:37:43 10° N 20:43:40 47° ENE 20:44:18 46° E
Cosmos 614 Rocket 4.4 20:44:49 47° ENE 20:44:49 47° ENE 20:48:55 10° NNE
Cosmos 1603 3.7 20:38:16 10° SSW 20:43:55 83° WNW 20:49:34 10° NNE
SPOT 5 2.9 20:44:26 57° NE 20:44:26 57° NE 20:48:20 10° N
Cosmos 2251 Rocket 4.1 20:39:33 10° SW 20:44:50 58° WNW 20:50:11 10° NNE
STARLINK-1200 3.9 20:42:29 10° W 20:46:21 64° NNW 20:46:21 64° NNW
CZ-4C R/B 4.2 20:41:53 10° NW 20:47:14 28° N 20:53:26 10° ENE
CZ-2C R/B 3.5 20:43:37 10° N 20:48:35 46° WNW 20:53:29 10° SW
IGS 5A 3.6 20:49:02 70° W 20:49:02 70° W 20:53:04 10° NNW
ERS-1 Rocket 2.8 20:48:38 75° SE 20:48:59 81° ENE 20:54:02 10° NNW
Landsat 7 3.9 20:49:40 63° SSW 20:50:14 70° WSW 20:55:01 10° NNW
STARLINK-1192 4.0 20:47:15 10° W 20:50:56 60° NW 20:50:56 60° NW
STARLINK-1244 4.2 20:52:12 10° W 20:55:40 55° NW 20:55:40 55° NW
Cosmos 1959 Rocket 4.5 20:52:55 10° N 20:59:15 62° ENE 20:59:53 59° ESE
STARLINK-1138 4.4 20:56:46 10° W 21:00:03 51° NW 21:00:03 51° NW
Cosmos 1656 Rocket 4.1 20:55:31 10° NW 21:01:04 55° WSW 21:02:04 48° SSW
Aureole 1 Rocket 4.2 21:01:51 33° SSW 21:05:39 78° ESE 21:12:05 10° NNE
CARTOSAT-1 4.0 21:07:29 60° NNW 21:07:29 60° NNW 21:11:07 10° NNW
COSMOS 2455 2.7 21:08:47 10° NW 21:14:51 75° NE 21:15:09 73° E
In-Cosmos 22 Rocket 4.2 21:14:24 10° N 21:20:10 80° ENE 21:20:10 80° ENE
Cosmos 2341 Rocket 4.3 21:15:01 10° NNW 21:21:17 63° W 21:22:43 50° SW
Cosmos 1461 3.8 21:17:33 10° NW 21:20:56 51° NNW 21:20:56 51° NNW
Cosmos 2369 Rocket 4.1 21:18:53 10° NW 21:22:55 20° W 21:25:03 16° SW
Cosmos 1763 Rocket 4.4 21:23:12 10° NNW 21:27:28 39° NE 21:27:28 39° NE
NOSS 3-4 (A) 3.9 21:22:22 10° NW 21:29:13 64° SW 21:30:09 59° SSW
NOSS 3-4 (C) 3.9 21:22:28 10° NW 21:29:19 64° SW 21:30:14 59° SSW
Cosmos 1190 Rocket 4.5 21:31:47 54° NNE 21:31:47 54° NNE 21:35:53 10° NNE
ATLAS CENTAUR R/B 3.8 21:29:13 10° NNW 21:31:38 15° NNE 21:31:52 15° NNE
Terra 2.4 21:32:46 55° NW 21:32:46 55° NW 21:36:39 10° NNW
Meteor 2-12 Rocket 4.3 21:30:37 10° N 21:36:34 82° NNE 21:36:34 82° NNE
Cosmos 1818 4.3 21:39:12 46° NNE 21:39:12 46° NNE 21:43:02 10° NE
Cosmos 2218 Rocket 4.2 21:42:18 10° NNW 21:48:23 62° W 21:48:36 62° WSW
Cosmos 1943 4.4 21:43:32 10° WSW 21:48:51 40° NW 21:54:14 10° NNE
Cosmos 1140 Rocket 4.3 21:56:03 47° N 21:56:03 47° N 21:59:53 10° NNE
USA 234 3.7 21:51:27 10° ENE 21:57:51 59° NNW 22:04:15 10° W
Cosmos 2181 Rocket 4.4 22:00:16 53° W 22:00:58 56° WNW 22:07:06 10° N
ATLAS 2AS CENTAUR R/B 3.5 21:54:39 10° NW 22:01:36 41° WSW 22:01:48 41° WSW
Cosmos 407 Rocket 4.5 22:06:47 42° NW 22:06:47 42° NW 22:11:29 10° NNE
Cosmos 1697 Rocket 3.6 22:05:34 10° NNW 22:10:12 42° NNE 22:10:12 42° NNE
SL-16 R/B 4.5 22:09:35 10° N 22:13:04 16° NNE 22:15:22 13° ENE
Mayak 1.0 22:13:57 10° N 22:15:32 22° N 22:15:32 22° N
Cosmos 2322 Rocket 4.5 22:23:51 10° N 22:27:26 17° NNE 22:29:37 14° ENE
Cosmos 1980 Rocket 3.3 22:31:07 10° NNW 22:35:27 37° NNE 22:35:27 37° NNE
CZ-4C R/B 3.4 22:30:48 10° NW 22:37:20 49° NNE 22:38:44 44° ENE
Nadezhda 3 Rocket 4.4 22:38:52 62° N 22:38:52 62° N 22:44:06 10° N
Cosmos 2082 Rocket 4.2 23:00:51 18° ENE 23:00:51 18° ENE 23:02:36 10° NE
ATLAS CENTAUR R/B 4.4 23:07:42 10° NNW 23:08:02 12° NNW 23:08:02 12° NNW
ATLAS 5 CENTAUR R/B 3.9 23:20:05 23° NNE 23:20:05 23° NNE 23:22:20 10° NE
Cosmos 1833 Rocket 4.1 23:28:31 33° NE 23:28:31 33° NE 23:31:34 10° NNE
USA 234 3.8 23:34:05 10° E 23:40:23 53° N 23:46:42 10° WNW
SL-16 R/B 3.7 23:52:44 35° ENE 23:53:18 35° ENE 23:58:52 10° N
